Flag for Canada Weather past 2 weeks in Fort Nelson, British Columbia, Canada

Now
81 °F

Passing clouds.


Feels Like: 80 °F
Forecast: 47 / 83 °F
Wind: 6 mph from Southeast

Location: Fort Nelson

Current Time: Jul 7, 2015 at 3:40:46 PM

Latest Report: Jul 7, 2015 at 3:00 PM


Visibility: 8 mi

Pressure: 29.84 "Hg

Humidity: 37%

Dew point: 52 °F

Location of Fort NelsonLocation

Historic Weather in Fort Nelson — Graph

°F

Fort Nelson temperature yesterday

Maximum temperature yesterday: 63 °F (at 1:00 AM)
Minimum temperature yesterday: 50 °F (at 11:00 PM)
Average temperature yesterday: 58 °F

Past Weeks' High & Low Weather Summary

 TemperatureHumidityPressure
High90 °F (Jun 29, 4:00 PM)94% (Jun 30, 5:00 AM)30.28 "Hg (Jun 30, 5:00 AM)
Low43 °F (Jul 7, 5:00 AM)20% (Jul 1, 4:00 PM)29.67 "Hg (Jul 2, 7:00 PM)
Average67 °F53%29.96 "Hg
* Reported Jun 22 2:00 PM — Jul 7 2:00 PM, Fort Nelson, Weather by CustomWeather, © 2015

Note: Actual official high and low records may vary slightly from our data, if they occured in-between our weather recording intervals... More about our weather records

Advertising

Fort Nelson weather history for previous 24 hours

 ConditionsComfort  
Time TempWeatherWind HumidityBarometerVisibility
2:00 PM
Tue, Jul 7
77 °FPassing clouds.5 mph44%29.88 "Hg12 mi
1:00 PM73 °FSunny.6 mph47%29.90 "Hg12 mi
12:00 PM70 °FSunny.6 mph53%29.93 "Hg12 mi
11:00 AM64 °FSunny.6 mph60%29.97 "Hg10 mi
10:00 AM59 °FSunny.No wind72%30.00 "Hg15 mi
9:00 AM55 °FPassing clouds.3 mph77%30.03 "Hg10 mi
8:00 AM52 °FScattered clouds.5 mph88%30.06 "Hg10 mi
7:00 AM48 °FPartly sunny.3 mph94%30.09 "Hg15 mi
6:00 AM45 °FPartly sunny.No wind93%30.11 "Hg15 mi
5:00 AM43 °FPassing clouds.2 mph93%30.13 "Hg15 mi
4:00 AM45 °FPassing clouds.2 mph87%30.15 "Hg15 mi
3:00 AM45 °FPassing clouds.2 mph87%30.17 "Hg15 mi
2:00 AM46 °FPassing clouds.2 mph87%30.19 "Hg15 mi
1:00 AM48 °FPassing clouds.No wind87%30.20 "Hg15 mi
12:00 AM48 °FPassing clouds.3 mph87%30.21 "Hg15 mi
11:00 PM
Mon, Jul 6
50 °FScattered clouds.2 mph88%30.22 "Hg15 mi
10:00 PM54 °FPassing clouds.2 mph82%30.22 "Hg15 mi
9:00 PM61 °FPassing clouds.No wind59%30.22 "Hg15 mi
8:00 PM61 °FPassing clouds.3 mph59%30.23 "Hg15 mi
7:00 PM63 °FScattered clouds.3 mph56%30.24 "Hg15 mi
6:00 PM63 °FPartly sunny.5 mph56%30.24 "Hg15 mi
5:00 PM63 °FPartly sunny.2 mph52%30.26 "Hg15 mi
4:00 PM63 °FPartly sunny.6 mph49%30.27 "Hg15 mi
3:00 PM61 °FPartly sunny.7 mph55%30.27 "Hg15 mi
Weather by CustomWeather, © 2015

See weather overviewHow to use our weather pages